Regional Weather Roundup
Issued by NWS Sterling, VA

Home | Current Version | Previous Version | Text Only | Print | Product List | Glossary On
Versions: 1 2 3 4 5 6 7 8 9 10 11 12 13 14 15 16 17 18 19 20 21 22 23 24 25 26 27 28
000
ASUS41 KLWX 190910
RWRLWX

REGIONAL WEATHER ROUNDUP
NATIONAL WEATHER SERVICE BALTIMORE MD/WASHINGTON DC
400 AM EST THU JAN 19 2017

Note: "FAIR" indicates few or no clouds below 12,000 feet
with no significant weather and/or obstructions to visibility.
 TC=TEMPERATURE CELSIUS

 * =Non NWS site. Station does not report precipitation (e.g. rain,
    snow, etc.), thunder, or fog.

DCZ001-MDZ009-015-VAZ040>042-051-053>054-191000-
WASHINGTON METRO

CITY           SKY/WX    TMP DP  RH WIND       PRES   REMARKS
WASHINGTON NAT MOCLDY    45  36  70 NW9       30.08F
DULLES         CLOUDY    44  34  67 N12       30.07F
ANDREWS AFB    CLOUDY    44  35  69 NW7       30.06F
FT BELVOIR     CLEAR     35  32  90 CALM      30.07F
QUANTICO       CLOUDY    42  36  79 N7        30.09F
COLLEGE PARK*  CLOUDY    45  34  65 NW5       30.07F
LEESBURG*      CLOUDY    46  39  76 N3        30.08F
GAITHERSBURG*  CLOUDY    43  32  65 NW6       30.11F

$$

MDZ006>007-011-014-191000-
BALTIMORE METRO

CITY           SKY/WX    TMP DP  RH WIND       PRES   REMARKS
BWI AIRPORT    CLOUDY    44  36  73 NW8       30.07S
MD SCIENCE CTR   N/A     47  34  60 MISG      30.07S
ANNAPOLIS      CLOUDY    47  36  65 NW5       30.07S
FORT MEADE*    CLOUDY    43  36  75 NW3       30.10S

$$

MDZ012-015-019>023-191000-
MARYLAND EASTERN SHORE

CITY           SKY/WX    TMP DP  RH WIND       PRES   REMARKS
OCEAN CITY     CLOUDY    41  40  96 CALM      30.05S
SALISBURY      CLOUDY    45  39  79 NW6       30.05F
BAY BRIDGE AP* CLOUDY    45  36  70 NW6       30.07F
CAMBRIDGE*     CLOUDY    45  36  70 NW3       30.07R
EASTON*        CLOUDY    46  37  68 NW6       30.10F

$$

MDZ017>025-191000-
SOUTHERN MARYLAND

CITY           SKY/WX    TMP DP  RH WIND       PRES   REMARKS
PATUXENT RIVER PTCLDY    43  37  79 NW7       30.06F
ST INIGOES     CLEAR     40  34  79 CALM      30.06F
LEONARDTOWN*   CLEAR     43  34  70 NW5       30.08F

$$

MDZ003>005-191000-
NORTH CENTRAL MARYLAND

CITY           SKY/WX    TMP DP  RH WIND       PRES   REMARKS
FREDERICK*     CLOUDY    43  36  75 NW6       30.11S
HAGERSTOWN APT CLOUDY    43  34  70 CALM      30.06F
WESTMINSTER*   NOT AVBL

$$

MDZ501>502-191000-
WESTERN MARYLAND

CITY           SKY/WX    TMP DP  RH WIND       PRES   REMARKS
OAKLAND*       FOG       32  32 100 W9        30.02F VSB<1/4 WCI  24
CUMBERLAND*    CLOUDY    43  36  75 W5        30.12S

$$

VAZ025>031-191000-
SHENANDOAH VALLEY

CITY           SKY/WX    TMP DP  RH WIND       PRES   REMARKS
WINCHESTER*    CLOUDY    41  34  75 CALM      30.07S
FRONT ROYAL*   CLOUDY    36  34  93 CALM      30.06F
LURAY*         CLOUDY    32  32 100 SW3       30.08S
NEW MARKET*    CLOUDY    30  29  94 SW3       30.07S
STAUNTON*      CLOUDY    28  27  96 NE3       30.09F
WAYNESBORO*    CLOUDY    40  35  83 CALM      30.06F

$$

WVZ021-048>050-054>055-191000-
EASTERN WEST VIRGINIA PANHANDLE

CITY           SKY/WX    TMP DP  RH WIND       PRES   REMARKS
MARTINSBURG    CLOUDY    44  34  67 W5        30.07F
PETERSBURG*    CLOUDY    31  30  98 CALM      30.10S

$$

VAZ036>039-050-191000-
CENTRAL FOOTHILLS

CITY           SKY/WX    TMP DP  RH WIND       PRES   REMARKS
CHARLOTTESVILL CLOUDY    36  33  89 NW3       30.07S
CULPEPER*      CLOUDY    31  31  99 CALM      30.09S
ORANGE*          N/A     32  32 100 CALM      30.10S
GORDONSVILLE*  CLOUDY    31  31 100 CALM      30.08F
WARRENTON*     CLOUDY    31  28  89 CALM      30.07F

$$

VAZ055>057-191000-
NORTH AND CENTRAL PIEDMONT

CITY           SKY/WX    TMP DP  RH WIND       PRES   REMARKS
FREDERICKSBRG* CLOUDY    36  36 100 CALM      30.08S
STAFFORD*      CLOUDY    32  32 100 CALM      30.12F

$$

NCZ024-NYZ072-PAZ021-071-VAZ022-071-191000-
OTHER REGIONAL OBSERVATIONS

CITY           SKY/WX    TMP DP  RH WIND       PRES   REMARKS
NEW YORK CITY  CLOUDY    40  36  86 CALM      30.05S
PHILADELPHIA   CLOUDY    45  37  73 NW6       30.06R
PITTSBURGH     CLOUDY    37  36  96 SW7       30.07F
ROANOKE        CLOUDY    41  36  82 N5        30.10F
RICHMOND       CLOUDY    39  35  86 N7        30.08S
RALEIGH        PTCLDY    37  34  89 CALM      30.06F

$$

ANZ530>537-191000-
MARINE OBSERVATIONS

STATION/POSITION TIME  TEMP    WIND        PRES
                       AIR SEA DIR/SP/G
                 (UTC) (F)     (DEG/KT/KT) (MB)
THOMAS PT LIGHT  0900   45 39  290/  7/  7   N/A
BALT KEY BRIDGE  0848   44     290/  6/  7 1018.5R
COVE POINT       0848   44     350/ 10/ 12 1018.8S
LEWISETTA        0848   43 44  340/  5/  6 1017.9F
SOLOMONS ISLAND  0842   45 41  330/  6/ 10   N/A
PINEY POINT      0848          330/  8/  8   N/A

$$





USA.gov is the U.S. government's official web portal to all federal, state and local government web resources and services.